Location: *
(48.8489°N, 2.3218°E)
Time: 12:32:07
(UTC+00:00)

Meteor 1-5 Rocket - Pass Details

Date: 23 August 2019
Orbit: 788 x 916 km, 81.2° (Epoch: 19 September)

Event Time Altitude Azimuth Distance (km) Brightness Sun altitude
Rises 20:13:00 0° 182° (S) 3,470 7.1 -12.8°
Reaches altitude 10° 20:15:29 10° 181° (S) 2,518 6.3 -13.1°
Maximum altitude 20:21:10 71° 98° (E) 902 4.2 -13.9°
Drops below altitude 10° 20:26:41 10° 16° (NNE) 2,448 6.9 -14.6°
Sets 20:29:04 0° 14° (NNE) 3,368 7.7 -14.9°
